Lawrenceville, IL

12:10 AM CDT on September 25, 2016 (GMT -0500)
Lawrenceville-Vincennes International

Weather History for KLWV - January, 2013

Change the Weather History Date:

Tuesday, January 29, 2013

  Actual Average Record
Temperature  
Mean Temperature 60 °F 32 °F  
Max Temperature 66 °F 40 °F 66 °F (2002)
Min Temperature 54 °F 24 °F 3 °F (2014)
Degree Days  
Heating Degree Days 5 33  
Month to date heating degree days 968 983  
Since 1 July heating degree days 2790 2782  
Cooling Degree Days 0 0  
Month to date cooling degree days 0 0  
Year to date cooling degree days 0 0  
Growing Degree Days 10 (Base 50)    
Moisture  
Dew Point 55 °F    
Average Humidity 86    
Maximum Humidity 93    
Minimum Humidity 78    
Precipitation  
Precipitation 0.58 in 0.06 in 1.20 in (1970)
Month to date precipitation 5.37 2.24  
Year to date precipitation 5.37 2.24  
Sea Level Pressure  
Sea Level Pressure 29.70 in    
Wind  
Wind Speed 20 mph (SSW)    
Max Wind Speed 45 mph    
Max Gust Speed 55 mph    
Visibility 5 miles    
Events Fog , Rain , Thunderstorm    
T = Trace of Precipitation, MM = Missing Value Source: NWS Daily Summary

Daily Weather History Graph

Daily Weather History Graph

Search for Another Location

Airport or City:

Trip Planner

Search our weather history database for the weather conditions in past years. The results will help you decide how hot, cold, wet, or windy it might be!

Date:

Astronomy

Jan. 29, 2013 Rise Set
Actual Time 6:58 AM CST 5:09 PM CST
Civil Twilight 6:30 AM CST 5:37 PM CST
Nautical Twilight 5:58 AM CST 6:09 PM CST
Astronomical Twilight 5:27 AM CST 6:40 PM CST
Moon 8:02 PM CST (1/29) 7:57 AM CST (1/29)
Length of Visible Light 11h 06m
Length of Day
10h 10m
Waning Gibbous, 93% of the Moon is Illuminated
Jan 29
Waning Gibbous
Feb 3
Last Quarter
Feb 10
New
Feb 17
First Quarter
Feb 25
Full

Hourly Weather History & Observations

Time (CST) Temp. Dew Point Humidity Pressure Visibility Wind Dir Wind Speed Gust Speed Precip Events Conditions
12:53 AM 54.0 °F 51.1 °F 90% 29.97 in 5.0 mi South 15.0 mph - N/A   Clear
1:53 AM 54.0 °F 51.1 °F 90% 29.96 in 5.0 mi South 11.5 mph - N/A   Clear
2:20 AM 53.6 °F 51.8 °F 94% 29.95 in 5.0 mi South 11.5 mph - N/A   Mostly Cloudy
2:53 AM 55.0 °F 51.1 °F 86% 29.95 in 6.0 mi South 13.8 mph - N/A   Overcast
3:53 AM 55.9 °F 52.0 °F 87% 29.94 in 6.0 mi South 13.8 mph - N/A   Overcast
4:14 AM 55.4 °F 51.8 °F 88% 29.94 in 5.0 mi South 12.7 mph - N/A   Overcast
4:53 AM 55.0 °F 51.1 °F 86% 29.93 in 5.0 mi South 11.5 mph - N/A   Overcast
5:30 AM 55.4 °F 51.8 °F 88% 29.92 in 5.0 mi South 10.4 mph - N/A   Overcast
5:53 AM 54.0 °F 51.1 °F 90% 29.92 in 5.0 mi South 8.1 mph - N/A   Overcast
6:53 AM 55.0 °F 52.0 °F 89% 29.92 in 5.0 mi South 10.4 mph - N/A   Overcast
7:53 AM 57.0 °F 53.1 °F 87% 29.89 in 4.0 mi South 17.3 mph - N/A   Overcast
8:49 AM 59.0 °F 55.4 °F 88% 29.87 in 4.0 mi South 17.3 mph - N/A   Overcast
8:53 AM 59.0 °F 55.0 °F 87% 29.88 in 4.0 mi South 18.4 mph - N/A   Overcast
9:53 AM 60.1 °F 55.9 °F 86% 29.88 in 4.0 mi South 16.1 mph - N/A   Overcast
10:39 AM 62.6 °F 57.2 °F 82% 29.86 in 4.0 mi South 23.0 mph 32.2 mph N/A   Haze
10:53 AM 62.1 °F 57.0 °F 84% 29.85 in 5.0 mi South 21.9 mph 27.6 mph N/A   Haze
11:53 AM 62.1 °F 57.0 °F 84% 29.82 in 5.0 mi South 17.3 mph 27.6 mph N/A   Haze
12:53 PM 64.0 °F 57.0 °F 78% 29.77 in 6.0 mi South 17.3 mph - N/A   Haze
1:53 PM 64.9 °F 57.0 °F 75% 29.74 in 7.0 mi South 21.9 mph 29.9 mph N/A   Overcast
2:07 PM 64.4 °F 57.2 °F 77% 29.73 in 7.0 mi South 19.6 mph 28.8 mph N/A   Overcast
2:29 PM 64.4 °F 57.2 °F 77% 29.71 in 7.0 mi South 20.7 mph 28.8 mph N/A   Overcast
2:53 PM 64.9 °F 57.0 °F 75% 29.70 in 7.0 mi South 21.9 mph 31.1 mph N/A   Overcast
3:53 PM 64.0 °F 57.0 °F 78% 29.68 in 8.0 mi South 24.2 mph 31.1 mph N/A   Overcast
4:53 PM 63.0 °F 57.0 °F 81% 29.65 in 8.0 mi South 19.6 mph 28.8 mph N/A   Mostly Cloudy
5:24 PM 62.6 °F 55.4 °F 77% 29.64 in 9.0 mi South 21.9 mph 32.2 mph N/A   Scattered Clouds
5:53 PM 63.0 °F 57.0 °F 81% 29.62 in 10.0 mi South 23.0 mph 39.1 mph N/A   Clear
6:53 PM 64.0 °F 57.0 °F 78% 29.59 in 9.0 mi South 27.6 mph 36.8 mph N/A   Clear
7:53 PM 64.0 °F 57.0 °F 78% 29.55 in 10.0 mi South 23.0 mph 34.5 mph 0.00 in   Mostly Cloudy
8:53 PM 64.9 °F 57.9 °F 78% 29.48 in 8.0 mi South 28.8 mph 40.3 mph N/A   Scattered Clouds
9:53 PM 64.9 °F 57.9 °F 78% 29.42 in 8.0 mi South 35.7 mph 43.7 mph 0.00 in   Mostly Cloudy
10:53 PM 66.0 °F 59.0 °F 78% 29.37 in 7.0 mi South 34.5 mph 46.0 mph 0.00 in   Scattered Clouds
11:00 PM 66.2 °F 59.0 °F 78% 29.41 in 7.0 mi South 36.8 mph 46.0 mph 0.00 in Rain , Thunderstorm Light Rain
11:08 PM 59.0 °F 53.6 °F 82% 29.49 in 2.0 mi WSW 27.6 mph 47.2 mph 0.09 in Rain , Thunderstorm Rain
11:10 PM 57.2 °F 53.6 °F 88% 29.41 in 1.2 mi WNW 26.5 mph 47.2 mph 0.17 in Rain , Thunderstorm Heavy Thunderstorms and Rain
11:15 PM 55.4 °F 55.4 °F 100% 29.46 in 0.5 mi NW 43.7 mph 55.2 mph 0.34 in Fog , Rain , Thunderstorm Heavy Thunderstorms and Rain
11:19 PM 55.4 °F 55.4 °F 100% 29.48 in 0.5 mi NW 32.2 mph 55.2 mph 0.40 in Fog , Rain , Thunderstorm Heavy Thunderstorms and Rain
11:24 PM 55.4 °F 55.4 °F 100% 29.49 in 1.0 mi NW 26.5 mph 55.2 mph 0.43 in Rain , Thunderstorm Heavy Thunderstorms and Rain
11:30 PM 55.4 °F - N/A% 29.51 in 2.0 mi NW 24.2 mph 41.4 mph 0.47 in Rain , Thunderstorm Heavy Rain
11:36 PM 53.6 °F - N/A% 29.50 in 1.8 mi NW 19.6 mph 33.4 mph 0.51 in Rain Heavy Rain
11:44 PM 53.6 °F - N/A% 29.51 in 3.0 mi NW 25.3 mph 28.8 mph 0.53 in Rain Rain
11:53 PM 54.0 °F - N/A% 29.52 in 4.0 mi NW 18.4 mph 29.9 mph 0.56 in Rain Rain